Regional Weather Roundup
Issued by NWS Jackson, KY

Home | Current Version | Previous Version | Graphics & Text | Print | Product List | Glossary On
Versions: 1 2 3 4 5 6 7 8 9 10 11 12 13 14 15 16 17 18 19 20 21 22 23 24 25 26 27 28 29 30 31 32 33 34 35 36 37 38 39 40 41 42 43 44 45 46 47 48 49 50
000
ASUS43 KJKL 300110
RWRJKL

EAST KENTUCKY HOURLY WEATHER ROUNDUP
NATIONAL WEATHER SERVICE JACKSON KY
900 PM EDT FRI MAY 29 2015

NOTE: "FAIR" INDICATES FEW OR NO CLOUDS BELOW 12,000 FEET WITH
NO SIGNIFICANT WEATHER AND/OR OBSTRUCTIONS TO VISIBILITY.

* THESE REPORTS ARE NOT UNDER NWS QUALITY CONTROL AND MAY NOT
  REPORT WEATHER SUCH AS PRECIPITATION AND FOG.

KYZ079-080-083-085-087-088-110-112-115-119-120-300200
...EASTERN KENTUCKY...

CITY           SKY/WX    TMP DP  RH WIND       PRES   REMARKS
JACKSON        MOCLDY    73  67  81 SE5       30.14F
LONDON         PTCLDY    71  65  81 S3        30.13S
SOMERSET*      PTCLDY    70  64  83 CALM      30.13S
MONTICELLO*    PTCLDY    71  70  97 SE5       30.14S
MIDDLESBORO*   PTCLDY    72  66  82 W3        30.15S
HARLAN APT*    MOCLDY    68  66  94 E5        30.17S
HAZARD APT*    CLEAR     73  63  68 CALM      30.14F
PIKEVILLE APT* PTCLDY    68  64  88 CALM      30.16
BIG SANDY*     LGT RAIN  70  68  95 SE3       30.15F
MOREHEAD APT*  MOCLDY    72  68  88 CALM      30.13F
$$

KYZ035-036-041-042-044-050-067-078-099-300200
...CENTRAL KENTUCKY...

CITY           SKY/WX    TMP DP  RH WIND       PRES   REMARKS
MT STERLING*   MOCLDY    72  70  94 S3        30.13R
DANVILLE*      MOCLDY    73  64  73 SW10      30.12R
RICHMOND*      CLEAR     75  64  69 S3        30.11R
LEXINGTON      CLEAR     74  65  73 S3        30.10R
FRANKFORT      PTCLDY    76  64  66 S5        30.08R
$$

KYZ091>093-OHZ055-061-077-WVZ005-015-034-035-042-300200
...SOUTHERN OHIO/WEST VIRGINIA...

CITY           SKY/WX    TMP DP  RH WIND       PRES   REMARKS
COVINGTON      MOCLDY    74  67  78 S8        30.07R
COLUMBUS       MOCLDY    77  64  64 S8        30.08R
DAYTON         MOCLDY    80  64  58 S10       30.06S
WILMINGTON     CLEAR     75  65  70 S8        30.07S
HUNTINGTON     LGT RAIN  72  67  84 S6        30.11S
CHARLESTON     MOCLDY    71  68  90 CALM      30.13S
PINEVILLE*     MOCLDY    67  67 100 MISG      30.24F FOG
BECKLEY        MOCLDY    67  61  81 SE7       30.24S
BLUEFIELD      MOCLDY    68  61  78 SE7       30.26F
$$

VAZ002-007-008-TNZ017-027-036-066-071-300200
...SOUTHWEST VIRGINIA/EAST TENNESSEE...

CITY           SKY/WX    TMP DP  RH WIND       PRES   REMARKS
WISE*          MOCLDY    66  64  94 SW3       30.24F
JONESVILLE*    MOCLDY    72  70  94 CALM      30.19S
ABINGDON*      CLOUDY    70  69  94 N5        30.22R
BRISTOL        MOCLDY    70  64  81 CALM      30.18S
KNOXVILLE      CLOUDY    74  66  76 SE3       30.13S
OAK RIDGE      PTCLDY    77  64  64 VRB3      30.15S
CROSSVILLE     PTCLDY    67  64  90 VRB3      30.17R
NASHVILLE      PTCLDY    74  68  81 CALM      30.08R
$$

...KEY TO REMARKS...
VSB - VISIBILITY IN MILES
WCI - WIND CHILL INDEX
HX  - HEAT INDEX

$$



USA.gov is the U.S. government's official web portal to all federal, state and local government web resources and services.